STARLINK-1725 (46334 NORAD) Tracking and Keplerian Element Data

This shows tracking and keplerian element data for the satellite.

Feedback or suggestion? Click here.




ElementValue
Catalog46334
NameSTARLINK-1725
Epoch Orbit175
Epoch Day335.91670139
Epoch Year2020
RAAN358.0487
Inclination53.0005
Eccentricity0.0001304
Argument of Perigee71.4892
Mean Anonmoly214.9389
Mean Motion15.29279872
Decay Rate-0.01066662
L11 46334U 20062K 20335.91670139 -.01066662 00000-0 -40407-1 0 9994
L22 46334 53.0005 358.0487 0001304 71.4892 214.9389 15.29279872 1750

Live tracking and technical data element details for STARLINK-1725 (NORAD 46334). STARLINK-1725 can be tracked NOW for your location showing map with azimuth and elevation plus other details from your city location.

Track the satellite on the map from your city or location and see movement details for azimuth, elevation, latitude, longitude, range, height, and movement on the map or in text.







IsCatalogInMostPopularTable: catalog: 46334, numindb: 23
Update: records affected: 1



GetName: 46334 STARLINK-1725

Hit Count: updated at: Wed, 02 Dec 2020 06:54:41 GMT